Location: L�beck
(53.8752°N, 10.6787°E)
Time: 12:26:33
(UTC+01:00)

ISS - Pass Details

Date: 06 January 2018
Orbit: 402 x 407 km, 51.6° (Epoch: 18 January)

Event Time Altitude Azimuth Distance (km) Brightness Sun altitude
Exits shadow 05:13:40 19° 99° (E) 1,053 -1.0 -28.1°
Drops below altitude 10° 05:14:46 10° 92° (E) 1,471 0.0 -28.0°
Sets 05:16:54 0° 86° (E) 2,333 1.3 -27.7°
